Lid_Strength_Index
-2 -2 -2 -1 -1 -1 -1 -1 -1 -1 -1 -1 -1 -1 -2 -2 0 0 -1 -2 -1 -1 -1 0 0 2 6 8 8 3 -1 1 3 3 5 5 7 7 9 9 9 10 9 8 9 9 10
-2 -2 -2 -1 -1 -1 -1 -1 -1 -1 -1 -1 -1 -1 -1 -1 -0 -0 -1 -2 -1 -1 -0 -0 1 2 7 11 4 3 3 4 4 4 5 6 7 7 9 10 10 10 9 10 10 10 10
-2 -2 -2 -2 -1 -1 -1 -2 -1 -1 -1 -1 -2 -1 -1 -1 -0 -1 -2 -1 -1 -0 -0 1 1 5 7 10 4 3 3 4 4 4 6 6 6 7 8 11 10 11 12 12 11 11 11
-2 -2 -2 -1 -1 -2 -1 -1 -1 -1 -2 -2 -2 -2 -1 -2 -1 -2 -2 -0 -0 -0 1 1 1 5 9 5 4 4 3 4 4 4 5 5 5 7 9 10 10 12 13 15 12 11 11
-2 -2 -2 -1 -1 -1 -1 -1 -1 -1 -1 -1 -1 -0 -1 -1 -1 -0 -0 -0 1 1 1 1 5 5 10 4 6 4 4 5 5 5 5 5 6 9 9 12 14 13 16 15 14 11 11
-1 -1 -1 -1 -1 -1 -1 -1 -1 -1 -1 -0 -0 -0 -0 0 0 1 1 1 1 2 3 4 4 7 7 9 6 5 4 4 6 6 5 7 8 11 11 14 17 16 16 14 15 12 11
-1 -1 -1 -1 -1 -1 -1 -1 -1 0 -0 -0 -0 0 1 1 1 1 2 3 5 6 5 7 7 8 7 5 4 5 5 6 7 8 11 10 11 14 13 12 12 13 14 15 13 11 12
-0 -0 -1 -1 -1 -0 -0 -1 0 0 -0 0 -0 0 1 1 1 1 2 5 6 5 9 6 6 6 5 5 7 6 5 8 9 12 10 11 14 11 10 10 11 13 14 14 12 10 12
-0 -0 -0 -0 -1 -0 -0 -0 -0 -0 0 0 0 0 1 1 2 2 4 5 3 4 8 8 6 7 6 5 7 7 6 8 9 10 11 12 12 9 10 11 12 13 14 14 14 12 11
1 0 0 0 1 0 0 0 0 0 0 1 0 1 1 1 3 3 5 3 3 4 12 11 8 7 5 5 8 4 5 7 8 11 10 11 10 10 11 11 11 14 11 12 12 14 18
2 1 0 0 0 0 0 1 1 0 1 1 1 1 2 1 3 4 4 3 3 5 18 10 8 5 6 7 7 7 4 6 10 10 10 12 11 11 11 11 11 12 10 12 12 15 15
0 1 2 0 0 0 0 0 1 1 1 2 1 1 1 2 2 3 2 2 5 13 19 13 8 8 8 7 7 6 7 6 7 9 10 11 9 10 11 9 10 9 11 11 13 14 19
0 0 1 2 1 0 -0 0 1 1 1 2 2 2 2 2 4 2 2 4 13 18 11 12 11 8 9 10 9 9 9 10 12 15 16 11 10 9 9 11 9 10 15 19 19 20 20
0 0 0 0 1 1 1 1 1 1 1 1 3 3 2 3 2 2 4 8 16 13 12 9 9 9 10 10 10 9 11 12 11 12 14 16 17 10 9 11 13 13 15 19 22 21 20
-0 0 1 1 0 1 2 1 2 1 2 2 3 2 2 3 2 3 6 15 14 12 10 10 10 12 12 10 11 11 11 12 11 12 15 15 15 10 9 9 10 13 16 13 17 16 19
-0 -0 -0 1 1 1 1 2 2 1 2 2 2 3 3 3 2 4 9 12 12 9 9 9 12 11 13 12 12 13 13 11 10 10 10 14 18 12 10 9 10 12 11 17 17 20 21
-0 -0 0 0 1 2 1 1 1 3 2 3 3 5 4 3 3 6 13 12 10 8 8 10 11 12 12 12 12 13 13 11 10 11 11 12 15 15 12 13 13 14 14 14 15 17 20
0 0 0 0 1 1 2 2 1 1 3 5 5 9 4 4 8 8 11 9 9 8 8 8 9 10 12 12 13 14 13 11 9 10 12 12 14 18 15 12 11 12 13 13 18 18 18
0 0 0 0 1 1 2 1 2 2 3 5 8 9 4 5 11 11 10 9 9 9 10 10 10 10 11 12 15 13 13 9 9 10 12 12 15 20 18 16 14 15 13 13 13 15 18
0 0 0 0 1 1 1 2 2 2 3 4 6 10 6 7 8 10 11 11 11 9 9 9 10 10 12 13 12 14 13 10 10 10 9 10 14 17 19 18 16 17 14 13 14 19 18
0 -0 0 0 1 1 1 2 3 3 3 5 7 10 11 12 11 11 11 11 11 12 10 9 11 11 12 15 14 14 13 12 10 9 11 12 16 16 15 14 14 15 15 15 16 15 18
0 0 0 0 1 1 2 2 3 3 4 5 8 9 9 10 11 12 13 13 12 11 11 11 12 11 12 14 13 15 14 14 14 11 12 11 16 16 17 14 15 16 15 14 14 15 14
0 0 0 1 2 2 3 3 3 3 3 6 7 7 8 10 10 11 14 14 12 11 11 10 10 11 12 11 10 10 11 11 12 13 13 14 15 17 19 16 16 18 16 15 16 16 15
0 1 1 1 2 3 3 3 3 3 4 5 7 8 9 11 11 10 10 11 12 12 13 11 11 12 11 9 10 11 12 12 12 12 12 14 15 16 19 17 22 16 15 16 16 15 15
2 1 1 2 2 2 3 4 4 3 3 5 6 7 9 12 10 10 10 10 10 10 12 12 11 11 11 12 14 14 16 17 15 15 15 14 16 18 20 21 18 17 17 17 17 16 15
2 2 1 2 2 2 3 4 4 4 3 4 5 6 8 11 11 10 11 11 12 11 11 11 10 10 11 12 14 17 17 16 18 18 15 15 15 18 19 21 21 18 15 14 15 20 14
2 2 2 2 2 2 3 4 4 4 4 4 5 5 7 10 9 10 11 11 11 12 12 12 12 12 11 13 16 16 16 15 17 18 19 17 17 18 18 20 17 14 14 13 20 18 14
2 2 2 2 2 2 3 4 4 4 4 4 6 5 7 9 8 8 8 10 10 11 13 12 12 12 13 15 16 15 16 15 17 15 16 17 18 19 18 19 20 13 14 16 14 13 13
2 2 2 2 2 2 2 3 4 4 4 4 6 5 6 8 9 6 6 6 7 8 10 10 11 11 11 13 13 14 15 15 15 18 14 17 14 16 15 15 11 11 13 11 11 12 12